Flag for Congo Weather past 2 weeks in Pointe-Noire, Congo

Now
75 °F

Passing clouds.


Feels Like: 76 °F
Forecast: 69 / 77 °F
Wind: 7 mph from Southwest

Location: Pointe Airport-Noire

Current Time: Aug 20, 2014 at 6:36:19 PM

Latest Report: Aug 20, 2014 at 6:00 PM


Visibility: 5 mi

Pressure: 29.92 "Hg

Humidity: 78%

Dew point: 68 °F

Location of Pointe-NoireLocation

Historic Weather in Pointe-Noire — Graph

°F

Pointe-Noire temperature yesterday

Maximum temperature yesterday: 77 °F (at 12:00 PM)
Minimum temperature yesterday: 68 °F (at 4:00 AM)
Average temperature yesterday: 72 °F

Past Weeks' High & Low Weather Summary

 TemperatureHumidityPressure
High79 °F (Aug 6, 12:00 PM)100% (Aug 7, 4:00 AM)30.04 "Hg (Aug 7, 4:00 AM)
Low66 °F (Aug 9, 3:00 AM)61% (Aug 6, 1:00 PM)29.89 "Hg (Aug 6, 3:00 PM)
Average73 °F84%29.97 "Hg
* Reported Aug 5 5:00 PM — Aug 20 5:00 PM, Pointe-Noire, Weather by CustomWeather, © 2014

Note: Actual official high and low records may vary slightly from our data, if they occured in-between our weather recording intervals... More about our weather records

Advertising

Pointe-Noire weather history for previous 24 hours

 ConditionsComfort  
Time TempWeatherWind HumidityBarometerVisibility
5:00 PM
Aug 20
77 °FPassing clouds.8 mph69%29.92 "Hg5 mi
4:00 PM79 °FPassing clouds.9 mph65%29.89 "HgN/A
3:00 PM79 °FPassing clouds.9 mph65%29.92 "HgN/A
2:00 PM79 °FScattered clouds.9 mph61%29.92 "HgN/A
1:00 PM79 °FScattered clouds.7 mph61%29.95 "HgN/A
12:00 PM77 °FPartly sunny.12 mph65%29.98 "HgN/A
11:00 AM77 °FBroken clouds.12 mph65%30.01 "HgN/A
10:00 AM73 °FBroken clouds.10 mph78%30.04 "Hg5 mi
9:00 AM72 °FBroken clouds.10 mph88%30.04 "Hg5 mi
8:00 AM72 °FMild.3 mph94%30.04 "HgN/A
7:00 AM72 °FMore clouds than sun.5 mph94%30.04 "Hg4 mi
6:00 AM72 °FPartly cloudy.5 mph94%30.01 "Hg4 mi
5:00 AM72 °FPartly cloudy.2 mph94%30.01 "Hg4 mi
4:00 AM72 °FPassing clouds.3 mph94%29.98 "Hg4 mi
2:00 AM72 °FPartly cloudy.6 mph94%29.98 "Hg4 mi
1:00 AM72 °FOvercast.3 mph88%30.01 "Hg4 mi
12:00 AM72 °FPassing clouds.2 mph88%30.01 "Hg5 mi
11:00 PM
Aug 19
72 °FPassing clouds.5 mph94%30.01 "Hg5 mi
10:00 PM72 °FPassing clouds.7 mph94%30.01 "Hg5 mi
9:00 PM73 °FPassing clouds.3 mph89%30.01 "Hg5 mi
8:00 PM73 °FPassing clouds.3 mph89%29.98 "Hg4 mi
7:00 PM73 °FPassing clouds.6 mph89%29.95 "Hg4 mi
6:00 PM75 °FScattered clouds.6 mph78%29.92 "Hg4 mi
Weather by CustomWeather, © 2014

See weather overviewHow to use our weather pages